Spokane Fairchild, WA
on Friday, January 18, 2013

Friday
Previous Day Next Day
Daily Summary
 ActualAverage (KGEG)Record (KGEG)
Temperature
Mean Temperature °F 30°F  
Max Temperature 24°F 35°F 54°F (1919)
Min Temperature 12°F 25°F -28°F (1883)
Degree Days
Heating Degree Days 47 35  
Month to date heating degree days 654  
Since 1 July heating degree days 3488  
Cooling Degree Days 0 0  
Month to date cooling degree days 0  
Year to date cooling degree days 0  
Moisture
Dew Point 18°F   
Average Humidity 100    
Maximum Humidity 100    
Minimum Humidity 99    
Precipitation
Precipitation 0.00 in 0.06 in 0.60 in (1932)
Month to date precipitation 1.12  
Year to date precipitation 1.12  
Snow
Snow 0.00 in 0.30 in 4.30 in (1913)
Month to date snowfall 7.7  
Since 1 July snowfall 29.8  
Snow Depth 3.00 in   
Wind
Wind Speed 2 mph   
Max Wind Speed 6 mph   
Max Gust Speed mph   
Visibility 3 miles   
Events Fog , Snow   

Key: T is trace of precipitation, MM is missing value
Source: NWS Daily Summary
Time(PST)TemperatureDew PointHumidity Pressure Visibility Wind DirectionWind SpeedGust SpeedPrecipitationEvents Conditions
12:30 AM 19.4°F 19.4°F 100% 30.42 in 0.5 miles South 3.5 mph - N/A Fog Light Freezing Fog
12:47 AM 19.4°F 19.4°F 100% 30.41 in 1.0 miles SE 1.2 mph - N/A   Mist
12:55 AM 19.0°F 19.0°F 100% 30.40 in 0.8 miles South 2.3 mph - N/A   Mist
1:07 AM 19.4°F 19.4°F 100% 30.42 in 0.2 miles South 2.3 mph - N/A Fog Light Freezing Fog
1:55 AM 19.8°F 19.8°F 100% 30.42 in 0.2 miles Calm Calm - N/A Fog Light Freezing Fog
2:55 AM 19.9°F 19.9°F 100% 30.40 in 0.2 miles West 1.2 mph - N/A Fog Light Freezing Fog
3:34 AM 19.4°F 19.4°F 100% 30.40 in 0.8 miles Calm Calm - N/A   Mist
3:45 AM 19.4°F 19.4°F 100% 30.40 in 0.5 miles Calm Calm - N/A Fog Light Freezing Fog
3:55 AM 19.9°F 19.9°F 100% 30.39 in 0.5 miles Calm Calm - N/A Fog Light Freezing Fog
4:26 AM 19.4°F 19.4°F 100% 30.39 in 0.2 miles East 2.3 mph - N/A Fog Light Freezing Fog
4:55 AM 18.9°F 18.9°F 100% 30.39 in 0.2 miles ENE 2.3 mph - N/A Fog Light Freezing Fog
5:55 AM 18.1°F 18.1°F 100% 30.36 in 0.8 miles East 2.3 mph - N/A   Mist
6:32 AM 17.6°F 17.6°F 100% 30.38 in 3.0 miles NNE 3.5 mph - N/A   Mostly Cloudy
7:26 AM 17.6°F 17.6°F 100% 30.25 in 5.0 miles Calm Calm - N/A Snow Light Snow
7:31 AM 17.6°F 17.6°F 100% 30.25 in 4.0 miles Calm Calm - N/A Snow Light Snow
7:58 AM 18.1°F 18.1°F 100% 30.38 in 5.0 miles NE 2.3 mph - 0.00 in   Clear
8:58 AM 18.3°F 18.3°F 100% 30.37 in 5.0 miles East 1.2 mph - 0.00 in   Clear
9:58 AM 19.8°F 19.8°F 100% 30.37 in 8.0 miles NNE 3.5 mph - N/A   Partly Cloudy
10:58 AM 20.1°F 20.1°F 100% 30.37 in 7.0 miles NNE 4.6 mph - N/A   Scattered Clouds
11:58 AM 20.5°F 20.5°F 100% 30.35 in 7.0 miles SSE 2.3 mph - 0.00 in Snow Light Snow
12:58 PM 21.7°F 21.7°F 100% 30.33 in 7.0 miles South 5.8 mph - 0.00 in   Overcast
2:58 PM 24.1°F 24.1°F 100% 30.33 in 7.0 miles NNE 5.8 mph - 0.00 in   Clear
3:09 PM 23.0°F 23.0°F 100% 30.22 in 7.0 miles NNE 4.6 mph - N/A   Clear
3:20 PM 21.2°F 21.2°F 100% 30.22 in 7.0 miles NNE 4.6 mph - N/A   Clear
3:58 PM 23.0°F 23.0°F 100% 30.34 in 6.0 miles Variable 1.2 mph - N/A   Clear
4:31 PM 19.4°F 19.4°F 100% 30.23 in 4.0 miles ENE 2.3 mph - N/A   Clear
4:36 PM 17.6°F 17.6°F 100% 30.23 in 4.0 miles NE 3.5 mph - N/A   Clear
4:58 PM 18.3°F 18.3°F 100% 30.35 in 5.0 miles NE 2.3 mph - 0.00 in   Clear
5:41 PM 17.6°F 17.6°F 100% 30.23 in 5.0 miles ENE 2.3 mph - N/A Snow Light Snow
5:54 PM 17.6°F 17.6°F 100% 30.23 in 1.8 miles Calm Calm - N/A Snow Light Snow
5:58 PM 17.8°F 17.6°F 99% 30.36 in 1.0 miles Calm Calm - 0.00 in Snow Light Snow
6:00 PM 17.6°F 17.6°F 100% 30.23 in 1.0 miles Calm Calm - N/A   Clear
6:05 PM 17.6°F 17.6°F 100% 30.23 in 0.8 miles Calm Calm - N/A   Clear
6:10 PM 17.6°F 17.6°F 100% 30.23 in 0.2 miles Calm Calm - N/A Fog Light Freezing Fog
6:30 PM 19.4°F 19.4°F 100% 30.23 in 0.5 miles North 1.2 mph - N/A Fog Light Freezing Fog
6:42 PM 19.4°F 19.4°F 100% 30.23 in 3.0 miles North 2.3 mph - N/A   Clear
6:44 PM 17.6°F 17.6°F 100% 30.23 in 6.0 miles NNE 1.2 mph - N/A Snow Light Snow
6:50 PM 19.4°F 19.4°F 100% 30.23 in 4.0 miles North 2.3 mph - N/A   Clear
6:58 PM 19.0°F 19.0°F 100% 30.36 in 5.0 miles North 3.5 mph - 0.00 in   Clear
7:49 PM 15.8°F 15.8°F 100% 30.24 in 7.0 miles NNE 3.5 mph - N/A   Clear
7:58 PM 16.2°F 16.2°F 100% 30.37 in 3.0 miles NE 2.3 mph - N/A   Clear
8:04 PM 15.8°F 15.8°F 100% 30.24 in 0.5 miles Calm Calm - N/A Fog Light Freezing Fog
8:07 PM 15.8°F 15.8°F 100% 30.24 in 0.2 miles NE 1.2 mph - N/A Fog , Snow Light Freezing Fog
8:29 PM 14.0°F 14.0°F 100% 30.24 in 0.2 miles Calm Calm - N/A Fog Light Freezing Fog
8:58 PM 16.5°F 16.5°F 100% 30.39 in 0.2 miles NE 2.3 mph - 0.00 in Fog Light Freezing Fog
10:03 PM 14.0°F 14.0°F 100% 30.27 in 0.2 miles Calm Calm - N/A Fog Light Freezing Fog
10:48 PM 12.2°F 12.2°F 100% 30.27 in 0.2 miles Calm Calm - N/A Fog , Snow Light Freezing Fog
10:58 PM 12.2°F 12.2°F 100% 30.40 in 0.2 miles Calm Calm - 0.00 in Fog , Snow Light Freezing Fog
10:59 PM 12.2°F 12.2°F 100% 30.27 in 0.2 miles Calm Calm - N/A Fog Light Freezing Fog
11:58 PM 12.2°F 12.2°F 100% 30.41 in 0.2 miles NNE 3.5 mph - 0.00 in Fog Light Freezing Fog
Moon Phase
Jan. 18 Jan. 18 Jan. 26 Feb. 03 Feb. 10
Sunrise:07:31 AM (PST) Moon Rise:10:36 AM (PST)
Sunset:04:31 PM (PST) Moon Set:12:00 AM (PST)

Copyright © 2014 The Weather Underground, Inc.